Simultaneous Nadir Overpasses (SNOs) Predictions

Prediction of SNOs between METOP-A and NOAA-19 Satellite Orbit:

Table of predicted SNOs for the next 14.0 days since TLE Epoch: 5/6/2016
Index Date (METOP-A) Time (METOP-A) Lat,Lon (METOP-A) SZA (METOP-A ) Date (NOAA-19) Time (NOAA-19) Lat,Lon (NOAA-19) SZA (NOAA-19 ) Distance(km) Time Diff (sec)
1 05/08/2016 22:56:04 -76.33, 17.01 121.15 05/08/2016 22:54:54 -76.31, 15.00 121.18 52.79 70
2 05/08/2016 23:46:51 76.01,-176.75 58.53 05/08/2016 23:45:44 76.01,-176.65 58.53 2.82 67
3 05/09/2016 00:37:32 -76.03, -9.35 121.47 05/09/2016 00:36:50 -76.04, -9.51 121.46 4.14 42
4 05/09/2016 01:28:13 75.99, 157.85 58.49 05/09/2016 01:27:46 76.01, 157.86 58.50 1.57 27
5 05/09/2016 02:18:55 -75.97, -34.91 121.55 05/09/2016 02:18:51 -75.99, -34.84 121.53 2.84 4
6 05/09/2016 03:09:35 75.98, 132.45 58.45 05/09/2016 03:09:47 75.96, 132.53 58.43 3.08 12
7 05/09/2016 04:00:17 -75.95, -60.31 121.59 05/09/2016 04:00:53 -75.98, -60.33 121.56 3.63 36
8 05/09/2016 04:50:57 75.96, 107.04 58.41 05/09/2016 04:51:49 75.95, 107.04 58.41 0.41 52
9 05/09/2016 05:41:40 -75.89, -85.87 121.67 05/09/2016 05:42:54 -75.93, -85.66 121.62 7.72 74
10 05/19/2016 14:01:14 -76.60, 151.69 123.40 05/19/2016 14:00:09 -76.57, 147.90 123.44 97.91 65
11 05/19/2016 14:52:06 76.06, -42.90 56.04 05/19/2016 14:50:55 76.05, -42.83 56.03 2.71 71
12 05/19/2016 15:42:48 -76.04, 124.34 123.99 05/19/2016 15:41:59 -76.04, 124.42 123.99 2.11 49
13 05/19/2016 16:33:28 76.04, -68.31 56.01 05/19/2016 16:32:57 76.04, -68.32 56.01 0.30 31
14 05/19/2016 17:24:10 -76.02, 98.94 124.03 05/19/2016 17:24:01 -76.04, 98.92 124.01 2.33 9
15 05/19/2016 18:14:50 76.02, -93.71 55.98 05/19/2016 18:14:59 76.04, -93.81 55.99 3.01 9
16 05/19/2016 19:05:32 -76.00, 73.54 124.06 05/19/2016 19:06:02 -75.99, 73.59 124.07 1.79 30
17 05/19/2016 19:56:12 76.01,-119.12 55.94 05/19/2016 19:57:00 75.99,-119.14 55.93 2.00 48
18 05/19/2016 20:46:54 -75.98, 48.13 124.09 05/19/2016 20:48:04 -75.99, 48.10 124.09 1.16 70
19 05/19/2016 21:37:46 75.43,-146.32 55.35 05/19/2016 21:38:50 75.44,-142.78 55.38 98.93 64




NCC Satellite Simultaneous Nadir Overpasses (SNOs) Prediction Service
